[[{"header":{"parameterUnit":"m.s-1","parameterCategory":1,"la1":30.2991,"la2":30.254,"lo1":-89.0895,"lo2":-89.0444,"dy":0.0017,"dx":0.0017,"nx":28,"ny":28,"refTime":"2025-11-14T09:00:00:Z","depth":0,"parameterNumber":2,"parameterNumberName":"U-component_of_WINDS"},"data":[0,0,0,0,0,0,0,0,0,0,0,0,0,0,0,0,0,0,0,0,0,0,0,0,0,0,0,0,0,0,0,0,0,0,0,0,0,0,0,0,0,0,0,0,0,0,0,0,0,0,0,0,0,0,0,0,0,0,-0.283,-0.283,0,-0.2847,-0.2847,-0.2848,-0.2841,-0.284,-0.284,-0.2839,-0.286,-0.2861,-0.2862,0,0,0,0,0,0,0,0,0,0,0,0,0,-0.2792,-0.2793,-0.283,-0.283,-0.283,-0.2847,-0.2847,-0.2848,-0.2841,-0.284,-0.284,-0.2839,-0.2859,-0.2861,-0.2862,0,0,0,0,0,0,0,0,0,0,0,0,0,-0.2809,-0.2793,-0.283,-0.2829,-0.2829,-0.2847,-0.2847,-0.2848,-0.2841,-0.284,-0.284,-0.2839,-0.2859,-0.286,-0.2862,-0.2883,0,0,-0.2866,-0.2867,0,0,0,0,0,0,0,0,-0.2808,-0.281,-0.2829,-0.2829,-0.2829,-0.2841,-0.2842,-0.286,-0.2841,-0.2836,-0.2839,-0.2839,-0.2854,-0.2856,-0.2861,-0.2884,-0.2885,-0.2866,-0.2867,-0.2868,-0.2868,0,0,0,0,0,0,0,-0.2807,-0.281,-0.2837,-0.2829,-0.2829,-0.2828,-0.283,-0.2845,-0.2849,-0.2837,-0.2836,-0.2838,-0.2854,-0.2859,-0.2861,-0.2885,-0.2866,-0.2867,-0.2868,-0.2869,-0.2926,-0.2927,0,0,0,0,0,0,-0.2805,-0.2809,-0.2836,-0.2837,-0.2817,-0.2829,-0.2831,-0.2838,-0.2848,-0.2849,-0.2839,-0.2838,-0.2857,-0.286,-0.2862,-0.2887,-0.2868,-0.2869,-0.287,-0.2926,-0.2926,-0.2927,0,0,0,0,0,0,-0.2805,-0.2808,-0.2835,-0.2823,-0.2826,-0.283,-0.2838,-0.2839,-0.2844,-0.285,-0.2851,-0.2843,-0.2857,-0.286,-0.2878,-0.2888,-0.287,-0.2871,-0.2925,-0.2926,-0.2927,-0.2938,0,0,0,0,0,0,-0.2803,-0.2808,-0.2815,-0.2823,-0.2827,-0.285,-0.2839,-0.2839,-0.2846,-0.2845,-0.2854,-0.2855,-0.2857,-0.2875,-0.2879,-0.2889,-0.2872,-0.2924,-0.2925,-0.2926,-0.2937,-0.2939,-0.2941,0,0,0,0,0,-0.2802,-0.2818,-0.2816,-0.2819,-0.2837,-0.2851,-0.2853,-0.2854,-0.2847,-0.2855,-0.2859,-0.2855,-0.2886,-0.2877,-0.2881,-0.2892,-0.2923,-0.2925,-0.2926,-0.2935,-0.2939,-0.2941,0,0,0,0,0,0,-0.2813,-0.2819,-0.2817,-0.2836,-0.2843,-0.285,-0.286,-0.2857,-0.2867,-0.2866,-0.2866,-0.2868,-0.2887,-0.2891,-0.2881,-0.2913,-0.2904,-0.2906,-0.2909,-0.2912,-0.2914,-0.2913,-0.2873,0,0,0,0,0,-0.2817,-0.2828,-0.2833,-0.2849,-0.2853,-0.2856,-0.2862,-0.2862,-0.2869,-0.2873,-0.2878,-0.2886,-0.2897,-0.2905,-0.2916,-0.2937,-0.2939,-0.2946,-0.2949,-0.2951,-0.2953,-0.2964,-0.2967,-0.2932,-0.2932,-0.2932,0,0,-0.2827,-0.2832,-0.2838,-0.2852,-0.2857,-0.2868,-0.2858,-0.2871,-0.288,-0.2875,-0.2891,-0.2896,-0.2905,-0.2924,-0.2933,-0.2928,-0.2963,-0.2953,-0.2954,-0.2955,-0.2966,-0.2969,-0.2972,-0.2933,-0.2933,-0.2933,0,0,-0.285,-0.2854,-0.2868,-0.2874,-0.2882,-0.2883,-0.2886,-0.2894,-0.2896,-0.2913,-0.2909,-0.292,-0.2939,-0.2946,-0.2952,-0.2976,-0.2974,-0.298,-0.2992,-0.3003,-0.3006,-0.3008,-0.3017,-0.302,-0.2982,-0.2982,-0.2982,0,-0.2861,-0.2877,-0.2876,-0.2889,-0.2895,-0.289,-0.2904,-0.2909,-0.2921,-0.2925,-0.292,-0.2944,-0.295,-0.2971,-0.2976,-0.2981,-0.2985,-0.2979,-0.3006,-0.3008,-0.301,-0.3019,-0.3022,-0.2983,-0.2983,-0.2983,-0.2983,0,-0.289,-0.2902,-0.2912,-0.2922,-0.2929,-0.2943,-0.2944,-0.2951,-0.295,-0.2952,-0.2969,-0.2976,-0.2988,-0.2993,-0.2992,-0.3013,-0.301,-0.3005,-0.2996,-0.3014,-0.3022,-0.3025,-0.2984,-0.2984,-0.2983,-0.2983,0,0,-0.2921,-0.293,-0.2933,-0.2938,-0.2946,-0.2955,-0.2968,-0.2979,-0.2985,-0.2993,-0.3004,-0.3021,-0.3016,-0.3023,-0.3023,-0.3032,-0.3051,-0.3026,-0.3026,-0.303,-0.3074,-0.3078,-0.3082,-0.3049,-0.305,-0.305,-0.3074,0,-0.2945,-0.2967,-0.2966,-0.2987,-0.2997,-0.2992,-0.3004,-0.301,-0.3013,-0.3022,-0.3025,-0.3037,-0.303,-0.3034,-0.3043,-0.3047,-0.306,-0.3045,-0.306,-0.306,-0.3058,-0.3086,-0.309,-0.3112,-0.3077,-0.3077,-0.3078,0,-0.2975,-0.2983,-0.3005,-0.3011,-0.3015,-0.3025,-0.3035,-0.3044,-0.3051,-0.3052,-0.3059,-0.3058,-0.3071,-0.3061,-0.308,-0.307,-0.3076,-0.3079,-0.308,-0.3081,-0.307,-0.3088,-0.3119,-0.3122,-0.3082,-0.3082,-0.3082,0,-0.2995,-0.3011,-0.3026,-0.303,-0.3038,-0.3045,-0.3048,-0.3055,-0.3061,-0.307,-0.3074,-0.3084,-0.309,-0.3098,-0.31,-0.3092,-0.3119,-0.3109,-0.312,-0.312,-0.3126,-0.3126,-0.3158,-0.313,-0.313,-0.313,-0.313,0,-0.3022,-0.3035,-0.3035,-0.3045,-0.306,-0.3059,-0.3074,-0.3077,-0.3082,-0.3092,-0.3089,-0.3099,-0.31,-0.311,-0.3111,-0.3126,-0.3129,-0.3131,-0.3131,-0.3131,-0.3131,-0.3135,-0.3134,-0.3131,-0.3131,-0.3131,-0.313,0,-0.3047,-0.3047,-0.3063,-0.3069,-0.307,-0.3081,-0.3086,-0.3095,-0.3096,-0.3109,-0.3112,-0.3115,-0.3127,-0.3129,-0.3143,-0.3143,-0.3162,-0.3161,-0.3159,-0.3159,-0.317,-0.3169,-0.3207,-0.3211,-0.318,-0.318,-0.3181,0,-0.3064,-0.3074,-0.308,-0.3086,-0.3089,-0.3099,-0.3105,-0.3105,-0.3111,-0.312,-0.3128,-0.3139,-0.3148,-0.3167,-0.317,-0.3181,-0.318,-0.3192,-0.3182,-0.3181,-0.318,-0.3179,-0.318,-0.3194,-0.3195,-0.3195,-0.3195,0,-0.3094,-0.3093,-0.3102,-0.311,-0.3117,-0.3124,-0.3131,-0.3136,-0.3136,-0.3144,-0.3155,-0.3162,-0.3176,-0.3187,-0.3197,-0.3201,-0.3199,-0.3199,-0.3202,-0.3202,-0.3201,-0.3201,-0.3165,-0.3198,-0.3198,-0.3197,-0.3197,-0.3197,-0.3115,-0.3124,-0.3129,-0.3138,-0.3143,-0.3149,-0.3157,-0.316,-0.3169,-0.3179,-0.3179,-0.3191,-0.3198,-0.3211,-0.3216,-0.3226,-0.3222,-0.3227,-0.3228,-0.3229,-0.323,-0.3199,-0.3228,-0.3228,-0.3228,-0.3228,-0.3228,0,-0.3145,-0.3147,-0.3156,-0.3165,-0.3172,-0.3168,-0.3175,-0.3182,-0.3192,-0.3198,-0.3207,-0.322,-0.323,-0.3234,-0.3245,-0.3252,-0.3251,-0.3255,-0.3254,-0.3255,-0.3233,-0.3229,-0.3255,-0.3255,-0.3255,-0.3255,-0.3255,-0.3255,-0.3161,-0.3175,-0.3175,-0.3191,-0.3194,-0.3206,-0.321,-0.3215,-0.322,-0.3234,-0.3243,-0.3245,-0.3251,-0.3261,-0.3271,-0.3272,-0.3276,-0.328,-0.3281,-0.326,-0.3257,-0.3254,-0.3251,-0.3281,-0.3281,-0.3302,-0.3302,-0.3302]},{"header":{"parameterUnit":"m.s-1","parameterCategory":1,"la1":30.2991,"la2":30.254,"lo1":-89.0895,"lo2":-89.0444,"dy":0.0017,"dx":0.0017,"nx":28,"ny":28,"refTime":"2025-11-14T09:00:00:Z","depth":0,"parameterNumber":3,"parameterNumberName":"V-component_of_WINDS"},"data":[0,0,0,0,0,0,0,0,0,0,0,0,0,0,0,0,0,0,0,0,0,0,0,0,0,0,0,0,0,0,0,0,0,0,0,0,0,0,0,0,0,0,0,0,0,0,0,0,0,0,0,0,0,0,0,0,0,0,-0.9679,-0.968,0,-0.9739,-0.974,-0.974,-0.9748,-0.9747,-0.9747,-0.9746,-0.9806,-0.9808,-0.9811,0,0,0,0,0,0,0,0,0,0,0,0,0,-0.9572,-0.9574,-0.9679,-0.968,-0.9681,-0.9739,-0.974,-0.974,-0.9748,-0.9747,-0.9746,-0.9746,-0.9806,-0.9808,-0.9811,0,0,0,0,0,0,0,0,0,0,0,0,0,-0.9624,-0.9574,-0.9679,-0.9691,-0.9693,-0.9739,-0.974,-0.9741,-0.9748,-0.9747,-0.9746,-0.9745,-0.9805,-0.9808,-0.9811,-0.9848,0,0,-0.9821,-0.9822,0,0,0,0,0,0,0,0,-0.9621,-0.9628,-0.9689,-0.9691,-0.9693,-0.9735,-0.9724,-0.9777,-0.9748,-0.9727,-0.9746,-0.9745,-0.9783,-0.9788,-0.9801,-0.9851,-0.9854,-0.9821,-0.9823,-0.9825,-0.9825,0,0,0,0,0,0,0,-0.9617,-0.9625,-0.9703,-0.969,-0.9692,-0.9694,-0.97,-0.9734,-0.9759,-0.9729,-0.973,-0.9737,-0.9784,-0.9798,-0.9803,-0.9855,-0.9821,-0.9824,-0.9826,-0.9827,-0.9938,-0.9939,0,0,0,0,0,0,-0.9611,-0.9622,-0.9701,-0.9705,-0.9654,-0.9697,-0.9704,-0.9722,-0.9759,-0.9764,-0.9737,-0.9737,-0.9793,-0.9799,-0.9805,-0.9851,-0.9825,-0.9828,-0.9829,-0.9937,-0.9939,-0.994,0,0,0,0,0,0,-0.9609,-0.9618,-0.9699,-0.9664,-0.9674,-0.9699,-0.972,-0.9724,-0.9738,-0.9765,-0.977,-0.9747,-0.9793,-0.98,-0.9838,-0.9853,-0.9829,-0.9832,-0.9936,-0.9938,-0.9939,-0.9944,0,0,0,0,0,0,-0.9606,-0.9617,-0.9632,-0.9664,-0.9676,-0.973,-0.9721,-0.9726,-0.9744,-0.9743,-0.9776,-0.978,-0.9793,-0.9833,-0.9841,-0.9857,-0.9834,-0.9935,-0.9937,-0.9939,-0.9943,-0.9946,-0.9948,0,0,0,0,0,-0.9602,-0.963,-0.9632,-0.9642,-0.9694,-0.9731,-0.9738,-0.9752,-0.9745,-0.976,-0.9777,-0.9779,-0.985,-0.9837,-0.9846,-0.9863,-0.9934,-0.9936,-0.9939,-0.9941,-0.9945,-0.9948,0,0,0,0,0,0,-0.9599,-0.9635,-0.9637,-0.9677,-0.9701,-0.9732,-0.9751,-0.9755,-0.9782,-0.9781,-0.9797,-0.9804,-0.984,-0.9856,-0.984,-0.9902,-0.9891,-0.9896,-0.989,-0.9894,-0.9897,-0.9893,-0.9837,0,0,0,0,0,-0.9603,-0.963,-0.966,-0.9692,-0.9704,-0.9726,-0.9742,-0.9751,-0.9777,-0.9787,-0.9807,-0.9831,-0.9859,-0.9878,-0.9905,-0.9945,-0.9952,-0.9961,-0.9964,-0.9966,-0.997,-0.9993,-0.9997,-0.9947,-0.9947,-0.9947,0,0,-0.9612,-0.9635,-0.9651,-0.9692,-0.9712,-0.974,-0.9734,-0.9764,-0.9785,-0.9791,-0.9828,-0.9843,-0.9872,-0.9911,-0.9929,-0.9925,-0.9985,-0.9969,-0.9971,-0.9973,-0.9996,-1.0,-1.0005,-0.9949,-0.9949,-0.9948,0,0,-0.9642,-0.9662,-0.9691,-0.9711,-0.9741,-0.9755,-0.9762,-0.9793,-0.9804,-0.9841,-0.9847,-0.9872,-0.9919,-0.994,-0.9956,-0.9994,-0.9997,-1.0002,-1.0017,-1.0039,-1.0043,-1.0047,-1.0061,-1.0066,-1.0006,-1.0006,-1.0006,0,-0.9649,-0.9691,-0.9706,-0.9735,-0.9754,-0.9761,-0.9791,-0.9809,-0.9847,-0.9859,-0.9854,-0.9914,-0.9934,-0.9978,-0.9987,-1.0,-1.0009,-0.9999,-1.0041,-1.0045,-1.0049,-1.0062,-1.0068,-1.0006,-1.0006,-1.0006,-1.0006,0,-0.9699,-0.9728,-0.9748,-0.9784,-0.9805,-0.9834,-0.9853,-0.9872,-0.9879,-0.9894,-0.9932,-0.9955,-0.9988,-0.9999,-1.0006,-1.0044,-1.0041,-1.0038,-1.0028,-1.0054,-1.0067,-1.0072,-1.0007,-1.0007,-1.0007,-1.0007,0,0,-0.9729,-0.9773,-0.978,-0.9797,-0.983,-0.9853,-0.9883,-0.9915,-0.9932,-0.9957,-0.9983,-1.0023,-1.0021,-1.004,-1.0049,-1.0069,-1.0098,-1.0064,-1.0065,-1.007,-1.0142,-1.0145,-1.015,-1.01,-1.0101,-1.0102,-1.014,0,-0.9763,-0.9817,-0.9831,-0.9877,-0.9905,-0.9912,-0.9938,-0.9962,-0.9977,-1.0002,-1.0018,-1.0047,-1.0042,-1.0053,-1.0073,-1.009,-1.0113,-1.0088,-1.0124,-1.0126,-1.0118,-1.0157,-1.0159,-1.0195,-1.0145,-1.0146,-1.0147,0,-0.981,-0.9837,-0.9886,-0.9917,-0.9929,-0.9952,-0.9983,-1.0007,-1.0034,-1.0043,-1.0065,-1.0072,-1.0104,-1.0092,-1.0136,-1.0119,-1.0135,-1.0146,-1.0147,-1.0152,-1.0138,-1.0163,-1.0206,-1.0211,-1.0155,-1.0154,-1.0154,0,-0.9828,-0.9876,-0.9912,-0.9926,-0.9963,-0.9979,-0.9995,-1.0021,-1.004,-1.0067,-1.0079,-1.0109,-1.0125,-1.0148,-1.0164,-1.0154,-1.0207,-1.0196,-1.0216,-1.0216,-1.0227,-1.0226,-1.0274,-1.0236,-1.0236,-1.0236,-1.0236,0,-0.9865,-0.9895,-0.9921,-0.9943,-0.9976,-0.9992,-1.0025,-1.0041,-1.0064,-1.009,-1.0098,-1.0121,-1.014,-1.0166,-1.0179,-1.0214,-1.0221,-1.0229,-1.0232,-1.0229,-1.0228,-1.024,-1.0238,-1.0237,-1.0237,-1.0237,-1.0237,0,-0.9891,-0.9909,-0.9949,-0.998,-0.9989,-1.0012,-1.004,-1.0061,-1.0076,-1.0108,-1.0117,-1.014,-1.0171,-1.0189,-1.0228,-1.0236,-1.0276,-1.0277,-1.0267,-1.0268,-1.0287,-1.0285,-1.0344,-1.0353,-1.0309,-1.0309,-1.031,0,-0.9914,-0.9937,-0.9971,-0.9989,-1.0005,-1.0034,-1.0053,-1.0069,-1.0089,-1.0122,-1.0139,-1.0171,-1.0198,-1.0247,-1.0268,-1.0298,-1.0301,-1.0319,-1.0305,-1.0301,-1.0302,-1.03,-1.0303,-1.0322,-1.0322,-1.0322,-1.0323,0,-0.9953,-0.9961,-0.9988,-1.0019,-1.0042,-1.0067,-1.0091,-1.0105,-1.0126,-1.0148,-1.018,-1.02,-1.0241,-1.0272,-1.0304,-1.0321,-1.0325,-1.0327,-1.0333,-1.033,-1.0323,-1.0328,-1.0274,-1.0325,-1.0325,-1.0325,-1.0325,-1.0325,-0.9978,-0.9999,-1.0027,-1.0057,-1.0078,-1.0101,-1.0123,-1.0141,-1.0168,-1.0203,-1.021,-1.0245,-1.0271,-1.0315,-1.0332,-1.0359,-1.0356,-1.0365,-1.0367,-1.0369,-1.037,-1.0319,-1.0365,-1.0365,-1.0365,-1.0365,-1.0365,0,-1.0018,-1.0036,-1.0064,-1.0098,-1.0122,-1.0125,-1.0152,-1.0172,-1.0202,-1.0227,-1.0253,-1.0291,-1.0321,-1.0344,-1.0376,-1.0393,-1.0396,-1.0401,-1.04,-1.0404,-1.0371,-1.0363,-1.0398,-1.0398,-1.0398,-1.0398,-1.0398,-1.0398,-1.0041,-1.0077,-1.0089,-1.0135,-1.0153,-1.0187,-1.0203,-1.0224,-1.0244,-1.0286,-1.0311,-1.0326,-1.0351,-1.0384,-1.0413,-1.0419,-1.043,-1.0435,-1.0441,-1.041,-1.0406,-1.0403,-1.0395,-1.0437,-1.0437,-1.0472,-1.0473,-1.0473]}]]